HUANJING 1B (HJ-1B)

Last updated on Mon Sep 21 2026 00:02:45 GMT+0000 (Coordinated Universal Time)

1 33321U 08041B 26263.58314351 .00000530 00000+0 70155-4 0 9993 2 33321 97.6626 248.6732 0034829 229.0012 130.8189 14.83467140972550
UTC large
Height (km)
Speed (km/s)
/
Latitude / Longitude
Inclination (degrees)
Orbital Period (minutes)
Azimuth
Elevation
Range (km)
Doppler Factor

Next 0 passes for location: London (51.5072 / 0.1276)

No passes found over London.
HUANJING 1B (HJ-1B)